Location: Napier
(39.4830°S, 176.9170°E)
Time: 04:57:19
(UTC+13:00)

Cosmos 2228 Rocket - Pass Details

Date: 24 January 2019
Orbit: 617 x 653 km, 82.5° (Epoch: 18 February)

Event Time Altitude Azimuth Distance (km) Brightness Sun altitude
Exits shadow 21:12:53 - 26° (NNE) 2,476 5.6 -7.1°
Reaches altitude 10° 21:14:15 10° 33° (NNE) 1,988 5.1 -7.3°
Maximum altitude 21:17:57 27° 91° (E) 1,206 4.1 -7.9°
Drops below altitude 10° 21:21:43 10° 148° (SSE) 2,017 5.7 -8.5°
Sets 21:24:13 0° 160° (SSE) 2,937 6.7 -8.9°
